Find Starlink 38215

NORAD ID: 100305 Int'l Des: 2026-184 Owner: SPXS Country: US Constellation: starlink operational

Current View

Loading 3D Globe...

About Starlink 38215

Starlink 38215 (NORAD 100305) is a starlink constellation satellite launched Aug 12, 2026 by SPXS of US. with a mass of 575.00 kg.

Upcoming Passes

Passes for default location (London). Set your location on the main map for personalized predictions.

Altitude History

Loading altitude history...

Two-Line Element Set

1 A0305U 26184E 26262.04486999 .00012433 00000-0 38677-3 0 9993
2 A0305 97.2841 127.1284 0001539 72.0739 288.0671 15.33447389 7132
Epoch: Sep 19, 2026 • Age: 41 hours

Current Status

Altitude 478.0 km
Apogee / Perigee N/A
Velocity 7.63 km/s
Sub-Earth Point 82.63°N, 137.02°E
Launch Date Aug 12, 2026
Age 0.1 years
Type internet

Technical Details

Classification Payload
Mass 575.00 kg
Dry Mass 530.00 kg
Length 0.30 m
Span 29.00 m
Shape ? Box + pan
Manufacturer SPXS
Bus Type Starlink V2MO
Phase Status In Orbit
Owner/State SPXS/US

Most Searched